�N����,����,�~����,�C��,���x,�C��,����,���ϕ���,�ő�u�ԕ���,�ő厞����,���˗�,�I�_���x,�n�����x,�ő啗���N��,DTYPE
"18/07/23","00:10",0.0,27.4,81.6,1002.4,341.8,1.0,1.6,357.8,0.00,24.0,28.1,"00:06:16",1
"18/07/23","00:20",0.0,27.2,82.5,1002.4,328.8,1.2,2.2,345.2,0.00,24.0,28.0,"00:18:08",1
"18/07/23","00:30",0.0,27.1,82.7,1002.4,308.5,0.8,1.4,344.4,0.00,23.9,27.8,"00:20:16",1
"18/07/23","00:40",0.0,26.9,83.4,1002.4,288.7,0.6,1.2,327.5,0.00,23.9,28.1,"00:30:08",1
"18/07/23","00:50",0.0,26.8,83.8,1002.2,278.7,0.6,1.2,271.5,0.00,23.9,28.0,"00:49:12",1
"18/07/23","01:00",0.0,26.9,83.4,1002.2,295.3,0.7,2.5,332.0,0.00,23.9,27.9,"00:59:28",1
"18/07/23","01:10",0.0,26.9,83.6,1002.4,337.8,0.6,1.8,344.2,0.00,23.9,27.9,"01:01:04",1
"18/07/23","01:20",0.0,26.8,84.3,1002.2,335.5,0.8,1.3,347.9,0.00,24.0,27.8,"01:13:04",1
"18/07/23","01:30",0.0,26.6,84.9,1002.2,314.4,0.6,0.9,337.2,0.00,23.9,27.8,"01:20:48",1
"18/07/23","01:40",0.0,26.6,85.0,1001.9,320.8,1.1,2.9,344.8,0.00,23.9,27.7,"01:37:28",1
"18/07/23","01:50",0.0,26.7,84.6,1001.9,338.8,1.0,2.0,342.4,0.00,23.9,27.6,"01:41:12",1
"18/07/23","02:00",0.0,26.6,84.6,1002.2,314.1,0.6,1.1,340.6,0.00,23.8,27.7,"01:50:24",1
"18/07/23","02:10",0.0,26.5,85.0,1002.2,332.5,0.6,1.6,338.0,0.00,23.8,27.6,"02:09:56",1
"18/07/23","02:20",0.0,26.3,85.8,1002.2,337.8,1.2,2.0,340.8,0.00,23.8,27.4,"02:16:40",1
"18/07/23","02:30",0.0,26.3,85.9,1001.9,328.9,1.2,2.1,333.0,0.00,23.8,27.3,"02:28:40",1
"18/07/23","02:40",0.0,26.3,85.9,1002.2,335.5,1.1,1.9,346.3,0.00,23.8,27.3,"02:31:28",1
"18/07/23","02:50",0.0,26.4,85.8,1002.4,354.9,1.0,1.8,0.1,0.00,23.9,27.3,"02:44:24",1
"18/07/23","03:00",0.0,26.4,85.6,1002.2,337.5,1.1,1.9,332.3,0.00,23.8,27.2,"02:56:00",1
"18/07/23","03:10",0.0,26.3,85.9,1001.9,331.6,1.5,2.4,348.8,0.00,23.8,27.2,"03:06:56",1
"18/07/23","03:20",0.0,26.2,85.9,1002.4,333.2,1.1,2.5,351.0,0.00,23.7,27.2,"03:13:52",1
"18/07/23","03:30",0.0,26.1,86.1,1002.2,337.6,1.1,2.6,324.8,0.00,23.6,27.4,"03:29:28",1
"18/07/23","03:40",0.0,26.1,86.3,1001.9,333.4,1.3,2.4,317.7,0.00,23.7,27.1,"03:38:32",1
"18/07/23","03:50",0.0,26.2,86.3,1002.4,320.9,1.5,2.2,340.9,0.00,23.8,27.0,"03:46:24",1
"18/07/23","04:00",0.0,26.2,86.0,1002.2,328.8,1.3,2.0,320.9,0.00,23.7,27.1,"03:52:56",1
"18/07/23","04:10",0.0,26.1,86.2,1002.4,328.3,1.1,1.7,340.9,0.00,23.7,26.8,"04:02:16",1
"18/07/23","04:20",0.0,25.9,86.4,1002.4,328.1,1.2,2.5,332.2,0.00,23.5,26.9,"04:12:00",1
"18/07/23","04:30",0.0,25.8,86.9,1002.4,321.3,1.0,2.0,343.2,0.00,23.5,27.1,"04:27:36",1
"18/07/23","04:40",0.0,25.9,87.0,1002.2,330.0,1.5,2.9,336.9,0.00,23.6,27.0,"04:38:00",1
"18/07/23","04:50",0.0,25.9,86.9,1002.4,330.9,1.6,3.2,336.0,0.00,23.6,27.0,"04:46:00",1
"18/07/23","05:00",0.0,25.8,86.8,1002.6,304.7,0.8,1.6,326.3,0.00,23.5,26.9,"04:59:28",1
"18/07/23","05:10",0.0,25.8,86.9,1002.2,325.4,1.5,2.2,326.5,0.00,23.5,26.7,"05:06:48",1
"18/07/23","05:20",0.0,25.8,86.9,1002.9,335.8,1.2,2.7,345.3,0.00,23.5,26.9,"05:13:44",1
"18/07/23","05:30",0.0,25.9,87.1,1003.1,329.1,1.7,3.1,340.2,0.00,23.6,26.6,"05:25:04",1
"18/07/23","05:40",0.0,26.0,87.0,1002.9,329.6,1.6,3.6,333.9,0.00,23.7,26.7,"05:30:32",1
"18/07/23","05:50",0.0,26.2,87.1,1002.9,326.8,1.8,2.8,339.9,0.00,23.9,26.5,"05:42:24",1
"18/07/23","06:00",0.0,26.4,87.0,1002.6,335.1,1.5,2.5,317.9,0.01,24.1,26.6,"05:58:32",1
"18/07/23","06:10",0.0,26.6,86.6,1002.9,340.4,1.3,2.6,335.2,0.02,24.2,26.7,"06:07:04",1
"18/07/23","06:20",0.0,26.9,85.7,1002.9,327.7,1.7,3.6,344.8,0.02,24.3,26.7,"06:18:08",1
"18/07/23","06:30",0.0,27.4,84.9,1002.9,340.1,1.5,2.9,337.2,0.03,24.7,26.7,"06:21:28",1
"18/07/23","06:40",0.0,27.8,83.4,1002.6,344.0,1.5,3.2,350.9,0.04,24.8,26.7,"06:34:08",1
"18/07/23","06:50",0.0,28.3,82.1,1002.4,350.5,1.1,2.7,337.2,0.06,25.0,26.9,"06:44:16",1
"18/07/23","07:00",0.0,28.3,81.5,1002.6,350.3,1.2,2.4,348.6,0.08,24.9,26.8,"06:55:36",1
"18/07/23","07:10",0.0,28.5,80.2,1002.6,341.3,1.3,2.7,302.2,0.09,24.8,26.9,"07:05:36",1
"18/07/23","07:20",0.0,28.8,80.1,1002.2,344.7,1.5,4.2,338.7,0.13,25.1,27.0,"07:11:04",1
"18/07/23","07:30",0.0,28.9,78.9,1002.6,344.8,1.3,2.6,331.2,0.12,24.9,26.9,"07:22:56",1
"18/07/23","07:40",0.0,28.6,79.4,1002.2,345.3,1.5,2.7,346.1,0.09,24.7,27.1,"07:32:40",1
"18/07/23","07:50",0.0,29.0,79.1,1002.4,349.3,1.1,2.5,351.6,0.11,25.0,27.1,"07:45:44",1
"18/07/23","08:00",0.0,29.1,77.9,1002.6,348.8,1.3,2.7,339.6,0.12,24.9,27.3,"07:53:52",1
"18/07/23","08:10",0.0,29.3,77.4,1002.2,331.6,0.8,2.5,349.9,0.09,25.0,27.3,"08:03:44",1
"18/07/23","08:20",0.0,29.6,76.0,1002.4,293.4,0.6,1.9,226.8,0.16,25.0,27.1,"08:16:40",1
"18/07/23","08:30",0.0,29.7,76.1,1002.2,302.5,0.7,2.0,4.7,0.15,25.1,27.2,"08:22:24",1
"18/07/23","08:40",0.0,30.1,74.6,1002.6,328.1,0.6,3.1,331.2,0.17,25.1,27.6,"08:31:44",1
"18/07/23","08:50",0.0,30.8,73.8,1002.4,350.3,1.0,2.5,335.0,0.19,25.6,27.5,"08:43:28",1
"18/07/23","09:00",0.0,31.5,69.4,1002.6,356.3,1.0,2.1,320.8,0.35,25.3,27.7,"08:55:44",1
"18/07/23","09:10",0.0,32.2,67.5,1003.1,340.9,0.8,2.2,335.8,0.37,25.5,27.8,"09:02:40",1
"18/07/23","09:20",0.0,32.4,64.9,1003.4,223.1,0.5,1.8,176.1,0.39,25.0,27.8,"09:19:04",1
"18/07/23","09:30",0.0,32.7,64.4,1004.1,190.5,0.6,1.8,209.0,0.41,25.1,28.0,"09:28:32",1
"18/07/23","09:40",0.0,33.4,62.1,1004.3,71.8,0.6,2.1,30.2,0.42,25.2,28.2,"09:35:44",1
"18/07/23","09:50",0.0,33.9,61.8,1004.5,121.4,0.8,2.5,349.6,0.44,25.6,28.3,"09:44:08",1
"18/07/23","10:00",0.0,33.9,61.4,1004.5,247.1,0.8,2.1,223.5,0.44,25.5,28.7,"09:55:12",1
"18/07/23","10:10",0.0,33.8,62.3,1004.5,296.6,1.0,3.5,333.9,0.45,25.6,28.9,"10:01:04",1
"18/07/23","10:20",0.0,34.1,57.2,1005.0,303.4,1.1,2.4,348.1,0.49,24.5,29.1,"10:11:12",1
"18/07/23","10:30",0.0,34.5,55.5,1004.8,7.2,0.7,1.9,9.7,0.52,24.3,29.2,"10:28:16",1
"18/07/23","10:40",0.0,34.8,55.9,1004.5,305.2,1.6,3.6,230.9,0.50,24.7,29.3,"10:31:44",1
"18/07/23","10:50",0.0,34.2,56.7,1004.8,340.2,1.5,4.0,340.4,0.49,24.4,29.5,"10:49:12",1
"18/07/23","11:00",0.0,35.1,54.5,1004.1,347.0,1.7,4.5,347.0,0.47,24.6,29.6,"10:56:00",1
"18/07/23","11:10",0.0,35.0,54.2,1003.8,350.1,1.3,3.2,345.8,0.61,24.4,29.8,"11:04:24",1
"18/07/23","11:20",0.0,35.7,57.1,1004.3,337.6,0.8,2.7,2.2,0.52,25.9,29.9,"11:11:44",1
"18/07/23","11:30",0.0,34.4,55.6,1004.1,350.5,1.2,3.1,330.1,0.25,24.3,30.4,"11:21:28",1
"18/07/23","11:40",0.0,34.3,53.1,1003.6,358.6,1.1,2.6,347.1,0.32,23.4,30.2,"11:32:16",1
"18/07/23","11:50",0.0,35.7,56.2,1003.6,264.6,0.8,2.2,221.7,0.47,25.7,30.6,"11:48:32",1
"18/07/23","12:00",0.0,34.6,53.9,1003.1,227.6,1.5,3.4,187.1,0.23,23.9,30.4,"11:50:16",1
"18/07/23","12:10",0.0,35.3,51.5,1003.1,342.3,1.2,3.2,359.3,0.44,23.8,30.7,"12:00:48",1
"18/07/23","12:20",0.0,36.2,50.2,1003.4,19.3,1.0,2.4,343.4,0.49,24.2,30.8,"12:10:16",1
"18/07/23","12:30",0.0,34.9,48.6,1003.1,18.2,1.6,4.4,26.7,0.37,22.5,31.0,"12:29:20",1
"18/07/23","12:40",0.0,37.3,48.1,1003.1,35.1,1.2,3.3,2.5,0.63,24.5,31.1,"12:35:52",1
"18/07/23","12:50",0.0,36.9,45.6,1002.9,27.9,1.6,4.1,38.1,0.58,23.3,31.5,"12:40:08",1
"18/07/23","13:00",0.0,36.3,47.0,1003.4,356.1,1.6,3.4,359.1,0.53,23.2,31.6,"12:52:24",1
"18/07/23","13:10",0.0,36.6,45.6,1003.1,4.2,1.3,3.5,8.2,0.50,23.0,31.5,"13:03:20",1
"18/07/23","13:20",0.0,36.8,46.1,1003.4,17.9,1.6,3.4,88.2,0.52,23.4,31.6,"13:18:08",1
"18/07/23","13:30",0.0,36.8,44.0,1003.1,32.7,1.2,3.1,43.6,0.59,22.6,31.4,"13:23:36",1
"18/07/23","13:40",0.0,36.8,47.0,1003.1,350.5,1.8,4.1,331.8,0.50,23.7,31.5,"13:33:12",1
"18/07/23","13:50",0.0,36.5,45.1,1002.6,348.9,2.2,3.5,343.1,0.41,22.7,31.5,"13:42:24",1
"18/07/23","14:00",0.0,37.1,44.9,1002.4,16.0,1.7,4.4,341.9,0.56,23.2,31.6,"13:53:36",1
"18/07/23","14:10",0.0,37.2,44.5,1003.1,355.0,1.2,3.3,22.6,0.55,23.1,31.6,"14:01:04",1
"18/07/23","14:20",0.0,36.8,44.3,1002.9,354.2,1.8,4.7,24.1,0.54,22.7,31.8,"14:18:48",1
"18/07/23","14:30",0.0,36.9,46.6,1002.9,2.4,2.0,3.6,359.7,0.52,23.6,31.8,"14:23:52",1
"18/07/23","14:40",0.0,36.8,46.7,1002.4,359.5,1.8,4.8,325.9,0.38,23.6,31.8,"14:33:04",1
"18/07/23","14:50",0.0,36.7,46.8,1002.4,359.1,1.6,5.6,347.2,0.48,23.5,32.1,"14:46:32",1
"18/07/23","15:00",0.0,36.8,43.6,1001.9,1.1,1.7,3.3,342.2,0.46,22.4,32.0,"14:54:24",1
"18/07/23","15:10",0.0,36.4,47.6,1001.7,6.0,2.0,5.2,354.5,0.38,23.5,32.1,"15:03:52",1
"18/07/23","15:20",0.0,36.3,47.9,1001.2,350.1,1.7,3.7,346.8,0.34,23.5,31.9,"15:16:00",1
"18/07/23","15:30",0.0,36.6,45.3,1001.5,5.6,2.0,4.7,336.0,0.41,22.9,32.1,"15:20:48",1
"18/07/23","15:40",0.0,36.4,46.4,1001.2,0.1,1.7,3.3,0.7,0.38,23.1,32.0,"15:38:16",1
"18/07/23","15:50",0.0,36.3,47.0,1001.2,19.3,1.5,2.9,49.8,0.26,23.2,32.1,"15:43:20",1
"18/07/23","16:00",0.0,36.5,45.4,1000.8,352.0,2.0,3.6,342.7,0.25,22.8,32.0,"15:57:36",1
"18/07/23","16:10",0.0,36.8,46.2,1001.2,13.6,1.3,2.5,26.5,0.30,23.4,32.0,"16:00:40",1
"18/07/23","16:20",0.0,36.7,45.6,1001.0,349.7,1.8,5.2,339.9,0.31,23.1,32.1,"16:15:44",1
"18/07/23","16:30",0.0,36.8,45.8,1001.0,8.4,1.7,3.9,337.2,0.28,23.2,32.1,"16:21:04",1
"18/07/23","16:40",0.0,36.7,45.1,1000.8,359.3,1.5,3.9,335.9,0.25,22.9,31.8,"16:37:28",1
"18/07/23","16:50",0.0,36.7,46.0,1000.8,345.4,1.3,3.3,6.2,0.23,23.2,32.1,"16:44:40",1
"18/07/23","17:00",0.0,36.2,45.8,1000.8,1.8,1.8,4.0,357.3,0.21,22.7,32.0,"16:57:36",1
"18/07/23","17:10",0.0,36.2,47.8,1000.5,5.3,1.5,2.9,328.8,0.18,23.4,31.9,"17:02:32",1
"18/07/23","17:20",0.0,36.0,47.7,1000.8,14.7,1.5,3.7,357.6,0.16,23.2,31.9,"17:14:00",1
"18/07/23","17:30",0.0,35.8,48.2,1000.8,4.8,1.6,3.6,23.4,0.07,23.2,31.9,"17:24:40",1
"18/07/23","17:40",0.0,35.4,49.1,1000.3,350.0,1.6,3.3,337.5,0.00,23.1,31.9,"17:30:48",1
"18/07/23","17:50",0.0,35.2,50.5,1000.5,4.2,1.6,4.1,321.5,0.00,23.4,31.8,"17:48:40",1
"18/07/23","18:00",0.0,34.7,51.7,1000.5,349.4,1.6,4.1,352.7,0.00,23.3,31.5,"17:58:16",1
"18/07/23","18:10",0.0,34.6,52.4,1000.3,17.0,1.3,4.2,334.3,0.00,23.5,31.4,"18:09:04",1
"18/07/23","18:20",0.0,34.2,53.3,1000.5,8.4,1.3,3.2,34.7,0.00,23.4,31.0,"18:16:40",1
"18/07/23","18:30",0.0,33.8,54.5,1000.0,0.2,1.2,2.7,334.7,0.00,23.4,31.1,"18:24:16",1
"18/07/23","18:40",0.0,33.2,56.2,1000.0,358.7,1.3,2.8,12.8,0.00,23.3,31.0,"18:39:04",1
"18/07/23","18:50",0.0,32.5,57.4,1000.0,356.0,1.7,4.4,338.8,0.00,23.0,30.8,"18:46:24",1
"18/07/23","19:00",0.0,32.2,58.5,1000.3,8.5,1.2,2.4,358.7,0.00,23.1,30.7,"18:56:08",1
"18/07/23","19:10",0.0,31.8,60.4,999.8,356.3,1.0,2.4,344.6,0.00,23.2,30.7,"19:00:56",1
"18/07/23","19:20",0.0,31.3,61.7,999.6,351.8,1.0,2.9,345.6,0.00,23.1,30.5,"19:17:36",1
"18/07/23","19:30",0.0,31.2,62.3,999.3,333.6,1.3,4.0,350.0,0.00,23.2,30.4,"19:24:08",1
"18/07/23","19:40",0.0,30.9,63.7,999.3,352.1,1.5,4.5,347.3,0.00,23.3,30.2,"19:30:08",1
"18/07/23","19:50",0.0,30.6,64.9,999.6,1.9,1.3,2.7,337.5,0.00,23.3,30.0,"19:41:12",1
"18/07/23","20:00",0.0,30.4,65.3,999.6,3.4,1.1,2.9,346.2,0.00,23.2,30.0,"19:58:32",1
"18/07/23","20:10",0.0,30.1,66.4,999.6,3.4,1.1,2.5,346.1,0.00,23.2,29.7,"20:00:40",1
"18/07/23","20:20",0.0,30.0,67.2,999.3,12.2,0.7,3.2,348.1,0.00,23.3,29.6,"20:15:12",1
"18/07/23","20:30",0.0,29.5,68.7,999.6,240.4,0.6,1.4,6.8,0.00,23.2,29.7,"20:28:48",1
"18/07/23","20:40",0.0,29.0,71.2,1000.0,354.2,0.3,1.2,342.4,0.00,23.3,29.6,"20:37:36",1
"18/07/23","20:50",0.0,28.5,73.0,1000.3,334.3,0.5,1.1,359.9,0.00,23.2,29.4,"20:44:56",1
"18/07/23","21:00",0.0,28.0,76.5,1000.3,315.4,0.8,2.2,324.6,0.00,23.5,29.3,"20:58:32",1
"18/07/23","21:10",0.0,27.8,76.8,1000.8,291.7,0.6,2.0,322.4,0.00,23.4,29.1,"21:01:52",1
"18/07/23","21:20",0.0,27.9,77.9,1000.5,342.6,0.7,1.2,343.7,0.00,23.7,29.1,"21:15:52",1
"18/07/23","21:30",0.0,27.8,78.1,1000.8,344.6,1.0,1.7,326.1,0.00,23.7,29.0,"21:27:28",1
"18/07/23","21:40",0.0,27.6,78.3,1001.2,347.1,0.7,1.4,332.6,0.00,23.5,29.0,"21:37:12",1
"18/07/23","21:50",0.0,27.9,78.1,1001.2,328.3,1.8,4.7,345.0,0.00,23.8,28.7,"21:49:44",1
"18/07/23","22:00",0.0,28.5,74.5,1001.0,322.0,1.5,3.7,344.6,0.00,23.6,28.7,"21:51:12",1
"18/07/23","22:10",0.0,28.6,74.2,1000.8,343.6,1.2,2.4,323.0,0.00,23.6,28.7,"22:08:00",1
"18/07/23","22:20",0.0,28.8,73.3,1001.0,7.9,1.2,2.5,9.2,0.00,23.6,28.4,"22:19:44",1
"18/07/23","22:30",0.0,28.8,73.1,1000.8,12.4,1.5,2.6,3.0,0.00,23.5,28.6,"22:22:56",1
"18/07/23","22:40",0.0,28.8,72.7,1001.0,13.2,1.2,2.4,42.9,0.00,23.4,28.6,"22:33:36",1
"18/07/23","22:50",0.0,28.4,74.5,1000.8,21.2,1.0,2.7,14.5,0.00,23.5,28.6,"22:44:40",1
"18/07/23","23:00",0.0,28.0,75.9,1000.8,354.6,0.8,1.4,347.6,0.00,23.4,28.4,"22:52:00",1
"18/07/23","23:10",0.0,27.8,77.7,1000.8,35.0,0.8,2.1,83.2,0.00,23.6,28.2,"23:02:08",1
"18/07/23","23:20",0.0,27.6,77.9,1000.8,6.2,1.0,2.5,24.2,0.00,23.4,28.2,"23:18:56",1
"18/07/23","23:30",0.0,28.0,76.6,1000.8,12.8,1.2,3.2,38.1,0.00,23.5,28.1,"23:24:56",1
"18/07/23","23:40",0.0,27.9,76.0,1000.5,345.7,1.1,2.8,346.7,0.00,23.3,28.0,"23:32:24",1
"18/07/23","23:50",0.0,27.5,77.3,1000.8,326.2,1.0,1.9,333.1,0.00,23.2,28.2,"23:40:16",1
"18/07/23","24:00",0.0,26.9,79.1,1000.8,311.1,0.8,1.8,332.1,0.00,23.0,28.1,"23:58:48",1
